STARLINK-38371, 100505

Orbit data source: Space-Track

STARLINK-38371, 100505 is a payload satellite owned by SpaceX/Seattle (US) in LEO that was launched on Wed, 26 Aug 2026 UTC launched from the Air Force Western Test Range (AFWTR). Payload-class satellites include a variety of spacecraft equipped with specific instruments for various scientific and technological missions. These include communications satellites like Starlink; space stations such as the ISS; scientific satellites like the Hubble; Earth observation satellites from companies like Planet Labs, Umbra, and HawkEye 360; GPS; miniature CubeSats for education and research; and military/defense satellites.

Loading next visibility...
Identifier
100505, 2026-197D
Orbit
LEO
Country
Flag of USUS
Related business
Manufacturer
SpaceX/Seattle
Mission
Operational spacecraft
Bus & Motor
STARLINK V2MO, Unknown motor
Mass
575 kg wet, ~530 kg dry
Launch date (UTC)
2026-08-26 (2 weeks ago)
Launch vehicle
Unknown
Launch site
Air Force Western Test Range (AFWTR)
Object type
Payload
Rocket body
Debris
Shape & HBR
BOX + PAN, 17.7 m
Radar Cross Section
RCS unknown

Expand to show TLE details & history
Last TLE update: 8 hours ago

TLE from 8 hours ago
0 STARLINK-38371
1 A0505U 26197D   26251.47674690  .00275095  00000-0  12923-2 0  9991
2 A0505  69.9992 155.8171 0003899 268.1043  91.9713 15.82257928  2097
Epoch: 2026-09-08T11:26Z
TLE epoch observation values (Epoch: 2026-09-08T11:26:30.932Z)
Latitude
0.00005°
Longitude
-3.35437°
Altitude
326.661 km
Speed
7.713 km/s
True Right ascension
10h 23m 16s
True Declination
0° 00' 00"
Sunlit
Object was in daylight at epoch
Visualization orbit readout
Latitude
Unknown
Longitude
Unknown
Altitude
Unknown
Speed
Unknown
Apparent Right ascension
Unknown
Apparent Declination
Unknown
Sunlit
N/A
Visualization observer readout
Local Sidereal Time
11:42:58
Azimuth
Unknown
Elevation
Unknown
Doppler factor
Unknown
Orbital elements
Apogee altitude
324.541 km
Perigee altitude
319.317 km
Semi-major axis
6,700.066 km
Eccentricity
0.00039
Inclination
69.9992°
RAAN
155.8171°
Arg. of periapsis
268.1043°
True anomaly
92.01595°
Mean anomaly
91.9713°
Eccentric anomaly
91.99363°
Mean motion
3.95753 °/min
Orbital period
90.97 mins
BSTAR
0.0012923
Loading maneuver chart data...
Computing Atmospheric mass density...
Loading historical data...
Loading historical data...
Loading historical data...
Loading historical data...
Loading historical data...
Loading historical data...
Loading historical data...

Documentation

Showing up to 5 results
|